User: anonymous   Login
Location: Bazinghen
(50.8246°N, 1.6616°E)
Time: 21:13:13
(UTC+00:00)
Language:

Cosmos 841 Rocket - Orbit

View from above orbital plane
View from above orbital plane
View from above satellite
View from above satellite

Ground track
Ground track

The orbit data is extracted from the following two-line orbital elements,

1  9023U 76069B   20184.77156559  .00000040  00000-0  21155-4 0  9994
2  9023  74.0414 205.0642 0016267  96.0811 264.2198 14.39656404304788
Epoch (UTC): 02 July 2020 18:31:03
Eccentricity: 0.0016267
inclination: 74.0414°
perigee height: 748 km
apogee height: 771 km
right ascension of ascending node: 205.0642°
argument of perigee: 96.0811°
revolutions per day: 14.39656404
mean anomaly at epoch: 264.2198°
orbit number at epoch: 30478

The dashed part of the orbit path shows where the satellite is in the earth's shadow,  

DLR